Location: North Evanston
(42.0634°N, 87.6976°W)
Time: 20:42:13
(UTC+00:00)

Vanguard 2 Rocket - Pass Details

Date: 14 May 2026
Orbit: 553 x 3286 km, 32.9° (Epoch: 6 June)

Event Time Altitude Azimuth Distance (km) Brightness Sun altitude
Rises 14:14:41 0° 189° (S) 4,697 10.6 39.6°
Reaches altitude 10° 14:18:39 10° 173° (S) 4,156 10.6 40.3°
Maximum altitude 14:26:22 20° 132° (SE) 4,148 11.4 41.7°
Drops below altitude 10° 14:36:31 10° 93° (E) 5,691 12.0 43.5°
Sets 14:43:23 0° 80° (E) 7,052 12.1 44.8°
